CO-66
1 32791U 08021J 15049.84283150 .00002400 00000-0 26607-3 0 9993
2 32791 097.6664 099.3046 0015496 092.4659 267.8332 14.88098307368717
RS-30
1 32953U 08025A 15050.32385386 .00000010 00000-0 -13620-7 0 9997
2 32953 082.5014 047.5350 0018411 340.1549 019.8815 12.43056737305962
METEOR-M
1 35865U 09049A 15050.21009040 .00000132 00000-0 78859-4 0 9993
2 35865 098.5164 094.6920 0003134 094.2546 265.8990 14.21992249281444
RS-38
1 35869U 09049E 15050.19550980 .00000065 00000-0 48195-4 0 9993
2 35869 098.5093 094.3661 0005302 093.9660 266.2122 14.22271953281489
JUGNU
1 37839U 11058B 15049.83007771 .00000485 00000-0 11673-3 0 9995
2 37839 019.9606 199.9849 0018823 182.1776 326.3759 14.12423026173467
SRMSAT
1 37841U 11058D 15049.88932127 .00000432 00000-0 93168-4 0 9997
2 37841 019.9709 223.9229 0011796 112.5806 039.4716 14.10443009173238
RAX-2
1 37853U 11061D 15050.36955328 .00007348 00000-0 46553-3 0 9995
2 37853 101.7090 203.7138 0201721 059.5366 358.1571 14.94197288179502
AUBIESAT
1 37854U 11061E 15049.97781451 .00007244 00000-0 44155-3 0 9996
2 37854 101.7145 206.0024 0197515 056.1781 060.3104 14.96083071179536
HRBE
1 37855U 11061F 15050.41535485 .00007307 00000-0 45299-3 0 9992
2 37855 101.7144 205.5587 0200731 057.0597 304.9738 14.95070620179540
RS-39
1 38051U 11062C 14288.65876392 .70201582 12497-4 27925-2 0 9995
2 38051 051.5964 324.1908 0006422 269.6897 186.8903 16.43533377153081
E-STAR
1 38079U 12006C 15016.13455217 .17990388 48979-5 52837-3 0 9992
2 38079 069.3967 125.0648 0013168 047.0341 316.5109 16.44007688156194
GOLIAT
1 38085U 12006J 15047.13271005 .15174231 50628-5 38163-3 0 9993
2 38085 069.4022 049.8202 0017770 344.8867 016.3100 16.44194733160691
HORYU-2
1 38340U 12025D 15049.39320411 .00002307 00000-0 36062-3 0 9992
2 38340 098.3000 016.4054 0013468 112.4182 247.8453 14.73763946148030
RS-40
1 38735U 12041C 15050.31432770 .00000040 00000-0 21992-3 0 9992
2 38735 082.4788 133.4819 0017594 079.8194 280.4869 12.42567449116276
PROITERES
1 38756U 12047B 15050.48986184 .00001035 00000-0 15967-3 0 9992
2 38756 098.2185 147.8333 0011603 318.4162 041.6160 14.75563379131642
BEESAT-3
1 39134U 13015E 15050.08801882 .00008539 00000-0 52762-3 0 9996
2 39134 064.8729 074.7688 0034587 269.1275 090.5885 15.09935754100854
BEESAT-2
1 39136U 13015G 15050.22776236 .00007957 00000-0 50952-3 0 9990
2 39136 064.8735 075.8642 0035175 268.9547 090.7545 15.08673160100852
LO-75
1 39382U 13064C 14295.69194059 .07301741 00000-0 36367-2 0 9993
2 39382 040.4713 030.2705 0002289 341.7175 018.4586 16.19795749470823
ZACUBE-1
1 39417U 13066B 15049.63916167 .00002038 00000-0 27251-3 0 9991
2 39417 097.7441 116.5571 0061764 161.5105 198.8372 14.79234569 67109
TRITON-1
1 39427U 13066M 15049.41829332 .00001625 00000-0 27448-3 0 9994
2 39427 097.7308 107.0881 0116908 185.5490 174.4428 14.66272905 66467
DELFIN3XT
1 39428U 13066N 15049.44804528 .00002881 00000-0 48975-3 0 9991
2 39428 097.7310 105.6603 0125825 189.5889 170.2912 14.64748577 66352
GOMX-1
1 39430U 13066Q 15050.36768579 .00001617 00000-0 31007-3 0 9996
2 39430 097.7248 101.9144 0154150 200.4626 159.0356 14.57684664 66219
MO-76
1 39436U 13066W 15049.75035347 .00023659 00000-0 18714-2 0 9992
2 39436 097.7526 125.7028 0023338 143.6337 216.6477 15.00407132 67698
LO-74
1 39440U 13066AA 15050.11084032 .00001559 00000-0 23130-3 0 9998
2 39440 097.7392 113.3385 0083349 168.4514 191.8633 14.74091353 66931
PUCPSAT-1
1 39442U 13066AC 15049.48369795 .00003200 00000-0 35239-3 0 9998
2 39442 097.7521 122.2172 0034450 153.0522 207.2493 14.87825947 66213
SHINAISAT
1 39572U 14009A 14328.13084988 .28848087 76253-5 66603-3 0 9996
2 39572 064.9728 197.0096 0013534 259.7861 100.1802 16.45181032 42403
TEIKYOSAT
1 39576U 14009E 14297.85867254 .09345816 76764-5 25176-3 0 9997
2 39576 064.9818 300.5833 0008491 317.3597 044.3862 16.45008906 37698
CO-77
1 39577U 14009F 14244.78324653 .10543803 76292-5 32273-3 0 9993
2 39577 064.9920 123.7668 0014904 269.7208 091.1897 16.43552757 29380
SPROUT
1 39770U 14029E 15050.09011176 .00001528 00000-0 19243-3 0 9996
2 39770 097.8681 148.5801 0009172 223.0258 137.0274 14.83440267 40125
POPSAT-HIP1
1 40028U 14033U 15050.40806555 .00002489 00000-0 28791-3 0 9992
2 40028 097.9672 310.5254 0013609 204.0463 156.0124 14.86410645 36281
EO-80
1 40032U 14033Y 15050.31339337 .00002428 00000-0 28288-3 0 9990
2 40032 097.9619 310.2174 0012066 198.8774 161.1977 14.86143473 36270
VELOX-1
1 40057U 14034E 15050.41269163 .00002484 00000-0 37484-3 0 9998
2 40057 098.2262 126.5875 0010548 254.0695 105.9346 14.75227226 34519
DAURIA DX 1
1 40071U 14037C 15050.44244876 .00001155 00000-0 15985-3 0 9990
2 40071 098.3708 116.9613 0007677 257.3061 102.7298 14.80103489 33370
UKUBE-1
1 40074U 14037F 15050.47501630 .00002469 00000-0 32158-3 0 9990
2 40074 098.3718 117.4346 0003890 264.8131 095.2647 14.81585875 33409
CHASQUI-1
1 40117U 98067ET 15014.73322295 .07508583 12315-4 10026-2 0 9990
2 40117 051.6189 112.4445 0004239 337.2783 022.7551 16.34635278 23368
HODOYOSHI-1
1 40299U 14070B 15050.48088193 .00004751 00000-0 23530-3 0 9991
2 40299 097.4634 133.5222 0013241 178.7125 276.3461 15.18178327 15951
CHUBUSAT-1
1 40300U 14070C 15050.48382209 .00006382 00000-0 33111-3 0 9997
2 40300 097.4615 133.1699 0022825 180.4985 234.8171 15.16263642 15937
QSAT-EOS
1 40301U 14070D 15050.75902856 .00018088 00000-0 96741-3 0 9998
2 40301 097.4598 133.0521 0033813 180.5784 179.5928 15.14582609 15950
TSUBAME
1 40302U 14070E 15050.35852917 .00006610 00000-0 38449-3 0 9996
2 40302 097.4557 132.2127 0044293 183.5252 264.5004 15.11548906 15865
FIREBIRD FU3
1 40377U 15003B 15050.46238826 .00012601 00000-0 66292-3 0 9998
2 40377 099.1226 062.3561 0164727 278.2529 080.0053 15.04807584 2838
FIREBIRD FU4
1 40378U 15003C 15050.46201779 .00012377 00000-0 65027-3 0 9991
2 40378 099.1227 062.3566 0164912 278.2953 079.9622 15.04835749 2835
GRIFEX
1 40379U 15003D 15049.99827657 .00010359 00000-0 54935-3 0 9991
2 40379 099.1263 061.8066 0164559 280.8031 077.4762 15.04636137 2768
